TimeMST,TemperatureF,Dew PointF,Humidity,Sea Level PressureIn,VisibilityMPH,Wind Direction,Wind SpeedMPH,Gust SpeedMPH,PrecipitationIn,Events,Conditions,WindDirDegrees,DateUTC
12:00 AM,21.2,19.4,93,30.06,10.0,Calm,Calm,-,N/A,,Mostly Cloudy,0,2013-11-06 07:00:00
12:27 AM,23.0,21.2,93,30.05,7.0,South,3.5,-,N/A,,Overcast,170,2013-11-06 07:27:00
12:32 AM,23.0,21.2,93,30.05,1.5,South,3.5,-,N/A,,Overcast,190,2013-11-06 07:32:00
12:53 AM,23.0,21.9,96,30.13,2.5,South,6.9,-,N/A,,Overcast,190,2013-11-06 07:53:00
1:02 AM,23.0,21.2,93,30.04,1.5,SW,9.2,-,N/A,,Overcast,220,2013-11-06 08:02:00
1:13 AM,23.0,21.2,93,30.04,2.0,SSW,8.1,-,N/A,,Overcast,210,2013-11-06 08:13:00
1:20 AM,23.0,21.2,93,30.04,0.8,SW,6.9,-,N/A,,Mist,230,2013-11-06 08:20:00
1:36 AM,23.0,21.2,93,30.04,1.0,SW,8.1,-,N/A,,Mist,220,2013-11-06 08:36:00
1:53 AM,23.0,21.9,96,30.12,1.0,SSW,4.6,-,N/A,,Mist,200,2013-11-06 08:53:00
2:09 AM,23.0,21.2,93,30.04,0.8,South,4.6,-,N/A,,Mist,190,2013-11-06 09:09:00
2:53 AM,21.9,21.0,96,30.11,0.5,SSW,3.5,-,N/A,Fog,Light Freezing Fog,200,2013-11-06 09:53:00
3:53 AM,19.9,19.0,96,30.12,0.5,WSW,3.5,-,N/A,Fog,Light Freezing Fog,240,2013-11-06 10:53:00
4:21 AM,19.4,17.6,93,30.02,0.5,SW,3.5,-,N/A,Fog,Light Freezing Fog,230,2013-11-06 11:21:00
4:41 AM,19.4,17.6,93,30.02,0.2,Calm,Calm,-,N/A,Fog,Light Freezing Fog,0,2013-11-06 11:41:00
4:53 AM,18.0,15.1,88,30.13,0.5,Calm,Calm,-,N/A,Fog,Light Freezing Fog,0,2013-11-06 11:53:00
5:15 AM,15.8,12.2,86,30.01,1.2,Calm,Calm,-,N/A,,Mostly Cloudy,0,2013-11-06 12:15:00
5:22 AM,15.8,14.0,93,30.01,1.2,Calm,Calm,-,N/A,,Scattered Clouds,0,2013-11-06 12:22:00
5:27 AM,15.8,12.2,86,30.02,0.8,Calm,Calm,-,N/A,,Mist,0,2013-11-06 12:27:00
5:33 AM,15.8,12.2,86,30.02,1.0,Calm,Calm,-,N/A,,Clear,0,2013-11-06 12:33:00
5:53 AM,16.0,12.9,88,30.13,1.2,Calm,Calm,-,N/A,,Clear,0,2013-11-06 12:53:00
5:58 AM,15.8,12.2,86,30.01,4.0,Calm,Calm,-,N/A,,Clear,0,2013-11-06 12:58:00
6:53 AM,18.0,15.1,88,30.15,10.0,West,4.6,-,N/A,,Clear,280,2013-11-06 13:53:00
7:53 AM,25.0,21.0,85,30.14,10.0,WNW,5.8,-,N/A,,Clear,290,2013-11-06 14:53:00
8:53 AM,28.9,25.0,85,30.15,10.0,WNW,6.9,-,N/A,,Clear,290,2013-11-06 15:53:00
9:53 AM,35.1,26.1,70,30.15,10.0,West,5.8,-,N/A,,Mostly Cloudy,270,2013-11-06 16:53:00
10:53 AM,37.9,26.1,62,30.14,10.0,West,8.1,-,N/A,,Mostly Cloudy,280,2013-11-06 17:53:00
11:53 AM,42.1,18.0,38,30.12,10.0,West,5.8,-,N/A,,Partly Cloudy,270,2013-11-06 18:53:00
12:53 PM,45.0,23.0,42,30.11,10.0,West,13.8,23.0,N/A,,Clear,270,2013-11-06 19:53:00
1:53 PM,46.0,21.9,39,30.12,10.0,West,19.6,25.3,N/A,,Scattered Clouds,280,2013-11-06 20:53:00
2:53 PM,43.0,21.0,42,30.15,10.0,NW,19.6,26.5,N/A,,Mostly Cloudy,310,2013-11-06 21:53:00
3:53 PM,41.0,19.9,43,30.18,10.0,WNW,18.4,-,N/A,,Overcast,300,2013-11-06 22:53:00
4:53 PM,34.0,19.9,56,30.22,10.0,NW,9.2,-,N/A,,Partly Cloudy,310,2013-11-06 23:53:00
5:53 PM,27.0,19.0,72,30.27,10.0,NW,8.1,-,N/A,,Clear,310,2013-11-07 00:53:00
6:53 PM,27.0,19.0,72,30.29,10.0,NW,11.5,-,N/A,,Mostly Cloudy,320,2013-11-07 01:53:00
7:53 PM,26.1,17.1,69,30.30,10.0,NW,9.2,-,N/A,,Clear,310,2013-11-07 02:53:00
8:53 PM,17.1,12.9,84,30.33,10.0,WNW,6.9,-,N/A,,Clear,300,2013-11-07 03:53:00
9:53 PM,16.0,12.0,84,30.35,10.0,WNW,9.2,-,N/A,,Clear,290,2013-11-07 04:53:00
10:53 PM,15.1,10.9,84,30.35,10.0,WNW,5.8,-,N/A,,Clear,290,2013-11-07 05:53:00
11:53 PM,16.0,10.9,81,30.35,10.0,West,3.5,-,N/A,,Clear,270,2013-11-07 06:53:00